Location: Ayer Observatory
(42.2600°N, 71.0700°W)
Time: 03:49:14
(UTC-04:00)

Tiangong 2 - Visible Passes

Search period start: 25 May 2019 00:00
Search period end: 04 June 2019 00:00
Orbit: 379 x 387 km, 42.8° (Epoch: 25 May)

Date Brightness Start Highest point End Pass type
(mag) Time Alt. Az. Time Alt. Az. Time Alt. Az.
25 May 1.1 21:22:41 10° W 21:25:49 80° N 21:28:14 16° E visible
25 May 3.4 22:59:26 10° W 23:00:25 18° W 23:00:25 18° W visible
26 May 1.0 21:59:21 10° W 22:02:29 69° SSW 22:02:58 55° SE visible
27 May 1.0 20:59:18 10° W 21:02:27 89° S 21:05:31 10° E visible
27 May 3.0 22:36:10 10° W 22:37:41 21° WSW 22:37:41 21° WSW visible
28 May 1.4 21:36:00 10° W 21:39:02 47° SSW 21:40:13 29° SE visible
29 May 3.0 22:13:07 10° WSW 22:14:56 18° SW 22:14:56 18° SW visible
30 May 2.2 21:12:41 10° W 21:15:31 30° SSW 21:17:30 16° SSE visible
31 May 3.5 21:50:41 10° SW 21:51:45 11° SW 21:52:16 11° SSW visible
01 Jun 3.0 20:49:34 10° W 20:51:55 19° SSW 20:54:15 10° SSE visible
